GFSSW_prec_pwat_045.txt.gz
Precipitable_Water
1.01 1.00 0.95 0.91 0.85 0.84 0.79 0.79 0.73 0.68 0.72 0.75 0.86 0.89 0.87 0.81 0.84 0.89 0.78 0.94 0.95 0.98 0.99 0.89 0.85 0.78 0.83 0.79 0.79 0.73 0.61 0.50 0.42 0.36 0.37 0.36 0.32 0.38 0.34 0.33 0.31 0.33 0.34 0.42 0.55
0.97 0.99 0.97 0.92 0.88 0.83 0.76 0.77 0.71 0.64 0.71 0.78 0.85 0.89 0.82 0.82 0.82 0.68 0.84 0.94 0.96 0.96 0.86 0.82 0.76 0.74 0.72 0.73 0.73 0.66 0.57 0.45 0.49 0.44 0.40 0.39 0.33 0.32 0.31 0.33 0.31 0.31 0.38 0.48 0.57
0.96 0.98 0.95 0.90 0.84 0.79 0.74 0.76 0.67 0.63 0.72 0.80 0.84 0.85 0.78 0.88 0.72 0.65 0.81 0.86 0.91 0.90 0.85 0.80 0.77 0.73 0.68 0.69 0.67 0.63 0.52 0.54 0.53 0.49 0.41 0.35 0.33 0.33 0.31 0.28 0.28 0.28 0.33 0.41 0.47
0.96 0.95 0.95 0.89 0.83 0.76 0.75 0.73 0.64 0.63 0.76 0.80 0.83 0.82 0.77 0.82 0.48 0.68 0.73 0.77 0.84 0.84 0.78 0.74 0.70 0.66 0.62 0.60 0.62 0.58 0.59 0.54 0.52 0.43 0.35 0.32 0.33 0.27 0.30 0.31 0.32 0.34 0.35 0.36 0.37
0.90 0.92 0.91 0.85 0.79 0.74 0.74 0.68 0.61 0.66 0.78 0.78 0.79 0.80 0.77 0.58 0.59 0.73 0.69 0.74 0.75 0.76 0.72 0.72 0.64 0.63 0.57 0.60 0.57 0.50 0.52 0.46 0.41 0.35 0.32 0.30 0.27 0.26 0.26 0.31 0.34 0.34 0.35 0.34 0.36
0.87 0.87 0.85 0.81 0.75 0.71 0.70 0.63 0.60 0.69 0.77 0.76 0.76 0.78 0.68 0.48 0.65 0.73 0.68 0.70 0.71 0.77 0.72 0.67 0.68 0.65 0.60 0.57 0.51 0.50 0.40 0.33 0.31 0.27 0.27 0.25 0.26 0.28 0.28 0.32 0.31 0.32 0.33 0.36 0.34
0.81 0.81 0.80 0.76 0.69 0.69 0.63 0.59 0.62 0.72 0.73 0.71 0.73 0.76 0.58 0.57 0.64 0.66 0.70 0.65 0.71 0.69 0.71 0.67 0.65 0.56 0.55 0.49 0.44 0.32 0.24 0.24 0.24 0.27 0.26 0.29 0.23 0.24 0.28 0.30 0.29 0.31 0.32 0.31 0.31
0.76 0.76 0.73 0.68 0.69 0.63 0.60 0.58 0.65 0.72 0.68 0.69 0.73 0.64 0.50 0.63 0.62 0.62 0.62 0.56 0.73 0.67 0.69 0.68 0.58 0.49 0.43 0.35 0.24 0.20 0.20 0.19 0.29 0.29 0.29 0.26 0.17 0.28 0.30 0.29 0.30 0.29 0.29 0.29 0.29
0.70 0.68 0.67 0.67 0.64 0.59 0.58 0.58 0.64 0.68 0.67 0.70 0.60 0.53 0.37 0.52 0.49 0.55 0.65 0.56 0.53 0.51 0.50 0.52 0.46 0.34 0.24 0.19 0.18 0.21 0.14 0.21 0.26 0.28 0.28 0.23 0.20 0.31 0.32 0.30 0.28 0.27 0.29 0.28 0.29
0.65 0.66 0.65 0.62 0.59 0.58 0.55 0.58 0.67 0.71 0.64 0.64 0.51 0.37 0.39 0.42 0.45 0.49 0.54 0.49 0.41 0.34 0.31 0.30 0.26 0.21 0.20 0.17 0.14 0.18 0.19 0.18 0.19 0.28 0.26 0.25 0.24 0.30 0.29 0.28 0.28 0.29 0.29 0.29 0.28
0.64 0.63 0.62 0.59 0.58 0.55 0.51 0.57 0.55 0.48 0.47 0.37 0.33 0.33 0.33 0.37 0.40 0.41 0.39 0.32 0.28 0.24 0.20 0.24 0.19 0.17 0.21 0.23 0.20 0.18 0.17 0.17 0.22 0.29 0.24 0.20 0.22 0.26 0.29 0.30 0.29 0.28 0.27 0.27 0.27
0.61 0.58 0.56 0.56 0.54 0.52 0.61 0.53 0.52 0.56 0.34 0.35 0.29 0.28 0.32 0.32 0.28 0.32 0.33 0.23 0.21 0.19 0.21 0.19 0.16 0.25 0.23 0.22 0.21 0.21 0.19 0.21 0.25 0.26 0.23 0.23 0.24 0.28 0.29 0.27 0.28 0.28 0.27 0.27 0.27
0.58 0.57 0.56 0.53 0.51 0.50 0.57 0.56 0.62 0.59 0.35 0.29 0.29 0.26 0.28 0.29 0.26 0.28 0.29 0.26 0.22 0.20 0.20 0.18 0.27 0.27 0.23 0.23 0.21 0.23 0.21 0.21 0.20 0.27 0.28 0.26 0.18 0.22 0.27 0.27 0.28 0.29 0.29 0.29 0.29
0.59 0.59 0.55 0.53 0.46 0.52 0.53 0.59 0.64 0.60 0.25 0.20 0.24 0.28 0.29 0.31 0.26 0.35 0.35 0.30 0.25 0.22 0.23 0.22 0.29 0.24 0.23 0.22 0.24 0.19 0.27 0.22 0.22 0.23 0.18 0.26 0.10 0.20 0.24 0.24 0.25 0.26 0.27 0.28 0.29
0.57 0.57 0.57 0.66 0.53 0.44 0.57 0.61 0.62 0.50 0.14 0.26 0.27 0.39 0.34 0.28 0.33 0.33 0.38 0.34 0.26 0.27 0.25 0.25 0.26 0.24 0.23 0.25 0.26 0.23 0.28 0.25 0.26 0.21 0.18 0.18 0.16 0.21 0.26 0.21 0.22 0.24 0.26 0.28 0.28
0.53 0.59 0.64 0.60 0.55 0.56 0.63 0.58 0.46 0.20 0.18 0.25 0.31 0.27 0.27 0.30 0.30 0.33 0.31 0.35 0.34 0.29 0.29 0.28 0.33 0.27 0.28 0.29 0.27 0.29 0.25 0.24 0.22 0.18 0.13 0.18 0.18 0.18 0.22 0.21 0.22 0.25 0.26 0.27 0.27
0.58 0.63 0.66 0.60 0.50 0.58 0.61 0.45 0.22 0.18 0.30 0.26 0.29 0.32 0.30 0.30 0.30 0.32 0.29 0.26 0.24 0.20 0.21 0.25 0.25 0.26 0.27 0.23 0.29 0.27 0.22 0.14 0.17 0.18 0.17 0.23 0.17 0.16 0.25 0.23 0.23 0.24 0.25 0.25 0.26
0.62 0.63 0.59 0.56 0.60 0.60 0.49 0.29 0.19 0.24 0.23 0.33 0.31 0.31 0.27 0.30 0.31 0.33 0.30 0.25 0.26 0.23 0.19 0.17 0.19 0.26 0.28 0.27 0.24 0.23 0.19 0.14 0.12 0.13 0.15 0.21 0.14 0.19 0.23 0.23 0.23 0.24 0.24 0.25 0.27
0.56 0.52 0.50 0.52 0.57 0.54 0.37 0.21 0.24 0.25 0.31 0.29 0.29 0.25 0.27 0.28 0.27 0.28 0.25 0.25 0.24 0.21 0.17 0.16 0.17 0.25 0.26 0.27 0.25 0.22 0.15 0.23 0.15 0.16 0.14 0.15 0.19 0.21 0.22 0.21 0.22 0.23 0.24 0.26 0.28
0.47 0.43 0.43 0.54 0.58 0.48 0.33 0.26 0.29 0.31 0.32 0.31 0.23 0.25 0.24 0.28 0.24 0.24 0.25 0.29 0.25 0.24 0.24 0.20 0.14 0.20 0.21 0.23 0.22 0.19 0.24 0.17 0.19 0.13 0.13 0.15 0.16 0.17 0.20 0.21 0.22 0.23 0.24 0.27 0.30
0.47 0.39 0.41 0.56 0.55 0.42 0.28 0.29 0.28 0.29 0.32 0.27 0.26 0.26 0.26 0.26 0.25 0.25 0.24 0.29 0.29 0.24 0.23 0.20 0.15 0.16 0.16 0.16 0.18 0.18 0.18 0.18 0.18 0.17 0.14 0.13 0.16 0.22 0.21 0.23 0.23 0.25 0.27 0.29 0.32
0.38 0.28 0.36 0.45 0.32 0.36 0.31 0.30 0.28 0.27 0.30 0.28 0.28 0.28 0.27 0.27 0.24 0.24 0.23 0.25 0.28 0.25 0.20 0.20 0.17 0.14 0.15 0.20 0.21 0.21 0.19 0.20 0.17 0.18 0.20 0.18 0.16 0.24 0.24 0.24 0.25 0.26 0.27 0.30 0.33
0.38 0.33 0.40 0.42 0.31 0.29 0.30 0.29 0.30 0.28 0.29 0.31 0.31 0.31 0.29 0.27 0.23 0.22 0.23 0.28 0.26 0.23 0.21 0.21 0.18 0.15 0.18 0.23 0.24 0.19 0.21 0.21 0.21 0.22 0.17 0.15 0.17 0.26 0.28 0.29 0.30 0.30 0.30 0.32 0.31
0.31 0.28 0.32 0.38 0.37 0.31 0.29 0.29 0.28 0.32 0.31 0.31 0.26 0.25 0.22 0.20 0.22 0.20 0.21 0.25 0.27 0.26 0.26 0.24 0.21 0.18 0.17 0.20 0.23 0.20 0.21 0.22 0.20 0.17 0.18 0.19 0.22 0.27 0.30 0.30 0.30 0.30 0.31 0.32 0.35
0.36 0.33 0.30 0.25 0.26 0.29 0.29 0.28 0.25 0.23 0.26 0.27 0.24 0.24 0.23 0.21 0.21 0.21 0.24 0.26 0.28 0.32 0.29 0.26 0.21 0.22 0.22 0.21 0.21 0.20 0.20 0.21 0.22 0.23 0.21 0.22 0.24 0.28 0.30 0.31 0.30 0.30 0.33 0.35 0.36
0.38 0.35 0.33 0.31 0.30 0.29 0.27 0.24 0.22 0.22 0.23 0.23 0.22 0.24 0.22 0.21 0.22 0.21 0.24 0.25 0.25 0.32 0.30 0.30 0.23 0.25 0.22 0.25 0.26 0.24 0.26 0.27 0.27 0.27 0.25 0.26 0.27 0.32 0.33 0.31 0.30 0.31 0.33 0.34 0.35
0.44 0.41 0.41 0.33 0.33 0.32 0.32 0.32 0.30 0.32 0.32 0.31 0.29 0.29 0.28 0.30 0.30 0.30 0.31 0.31 0.31 0.30 0.31 0.30 0.28 0.27 0.24 0.28 0.27 0.23 0.28 0.27 0.25 0.25 0.25 0.22 0.26 0.28 0.27 0.28 0.30 0.33 0.34 0.34 0.35

GFSSW_prec_pwat_048.txt.gz
Precipitable_Water
0.96 0.95 0.95 0.89 0.87 0.83 0.79 0.77 0.76 0.73 0.67 0.73 0.77 0.86 0.89 0.83 0.80 0.90 0.94 1.02 1.03 1.03 1.00 0.94 0.90 0.84 0.88 0.83 0.81 0.78 0.62 0.55 0.46 0.42 0.41 0.39 0.36 0.42 0.40 0.35 0.33 0.35 0.37 0.47 0.59
0.98 1.00 0.97 0.94 0.90 0.84 0.81 0.78 0.76 0.72 0.64 0.73 0.79 0.85 0.86 0.79 0.79 0.85 0.94 0.96 1.00 0.99 0.95 0.86 0.81 0.79 0.77 0.78 0.78 0.68 0.60 0.52 0.53 0.52 0.46 0.44 0.37 0.37 0.34 0.38 0.34 0.32 0.41 0.51 0.57
1.00 0.98 0.98 0.95 0.91 0.86 0.80 0.75 0.74 0.69 0.64 0.77 0.79 0.84 0.81 0.82 0.72 0.68 0.84 0.87 0.93 0.94 0.92 0.85 0.81 0.78 0.71 0.73 0.70 0.65 0.56 0.59 0.59 0.58 0.50 0.42 0.40 0.35 0.35 0.31 0.31 0.28 0.34 0.41 0.46
0.98 0.99 0.98 0.94 0.89 0.84 0.80 0.73 0.73 0.65 0.69 0.81 0.79 0.81 0.78 0.81 0.48 0.75 0.75 0.80 0.87 0.90 0.85 0.79 0.75 0.69 0.66 0.61 0.66 0.58 0.61 0.60 0.62 0.54 0.44 0.38 0.40 0.30 0.32 0.32 0.35 0.34 0.35 0.36 0.36
0.98 0.94 0.94 0.93 0.88 0.83 0.76 0.73 0.70 0.62 0.76 0.79 0.78 0.79 0.76 0.60 0.58 0.72 0.70 0.74 0.80 0.83 0.77 0.73 0.67 0.64 0.59 0.59 0.59 0.53 0.55 0.56 0.53 0.44 0.39 0.34 0.29 0.26 0.25 0.31 0.34 0.35 0.34 0.33 0.34
0.88 0.90 0.91 0.89 0.84 0.78 0.72 0.71 0.65 0.62 0.83 0.75 0.75 0.79 0.68 0.55 0.63 0.71 0.68 0.68 0.73 0.76 0.74 0.70 0.70 0.68 0.61 0.59 0.56 0.57 0.51 0.45 0.40 0.33 0.30 0.25 0.25 0.26 0.27 0.31 0.30 0.31 0.32 0.32 0.33
0.87 0.87 0.87 0.84 0.80 0.72 0.69 0.67 0.60 0.68 0.80 0.71 0.74 0.77 0.63 0.61 0.63 0.67 0.65 0.62 0.73 0.70 0.72 0.71 0.65 0.58 0.63 0.56 0.57 0.46 0.34 0.30 0.28 0.28 0.27 0.28 0.23 0.22 0.31 0.31 0.28 0.29 0.31 0.33 0.32
0.83 0.82 0.81 0.79 0.71 0.68 0.67 0.60 0.59 0.77 0.72 0.67 0.76 0.74 0.54 0.64 0.61 0.59 0.63 0.64 0.68 0.70 0.68 0.67 0.70 0.59 0.56 0.55 0.38 0.26 0.22 0.18 0.28 0.31 0.33 0.28 0.15 0.29 0.33 0.30 0.28 0.31 0.31 0.29 0.28
0.77 0.77 0.75 0.69 0.66 0.67 0.60 0.56 0.67 0.77 0.67 0.70 0.66 0.62 0.48 0.59 0.55 0.60 0.60 0.58 0.58 0.63 0.66 0.61 0.62 0.59 0.42 0.28 0.21 0.21 0.17 0.19 0.27 0.35 0.32 0.27 0.20 0.31 0.34 0.32 0.30 0.29 0.29 0.29 0.28
0.71 0.68 0.65 0.66 0.66 0.60 0.56 0.62 0.75 0.72 0.67 0.71 0.64 0.48 0.44 0.45 0.53 0.54 0.59 0.57 0.55 0.51 0.50 0.41 0.37 0.31 0.25 0.20 0.14 0.19 0.22 0.22 0.21 0.28 0.28 0.25 0.23 0.31 0.33 0.31 0.30 0.30 0.30 0.30 0.28
0.64 0.65 0.65 0.65 0.60 0.57 0.58 0.62 0.58 0.51 0.55 0.43 0.35 0.40 0.40 0.43 0.47 0.50 0.51 0.51 0.46 0.36 0.26 0.31 0.20 0.16 0.21 0.24 0.23 0.19 0.15 0.15 0.18 0.29 0.26 0.25 0.22 0.24 0.32 0.32 0.30 0.31 0.30 0.29 0.28
0.66 0.65 0.62 0.60 0.56 0.59 0.72 0.60 0.61 0.59 0.38 0.44 0.41 0.38 0.40 0.42 0.37 0.41 0.43 0.35 0.30 0.22 0.26 0.21 0.14 0.24 0.26 0.25 0.21 0.18 0.18 0.18 0.25 0.30 0.27 0.23 0.20 0.26 0.31 0.31 0.31 0.30 0.28 0.28 0.28
0.63 0.62 0.59 0.55 0.55 0.57 0.66 0.68 0.71 0.66 0.35 0.32 0.34 0.31 0.31 0.32 0.32 0.35 0.33 0.28 0.22 0.20 0.21 0.18 0.26 0.32 0.26 0.22 0.19 0.21 0.21 0.21 0.21 0.27 0.26 0.25 0.22 0.24 0.30 0.32 0.32 0.31 0.31 0.30 0.29
0.56 0.53 0.52 0.55 0.48 0.55 0.61 0.66 0.71 0.67 0.30 0.24 0.23 0.27 0.28 0.31 0.26 0.33 0.33 0.29 0.23 0.20 0.24 0.22 0.28 0.24 0.22 0.21 0.23 0.19 0.28 0.26 0.23 0.20 0.17 0.28 0.14 0.17 0.24 0.27 0.28 0.28 0.29 0.30 0.29
0.55 0.52 0.54 0.73 0.57 0.52 0.62 0.64 0.65 0.56 0.18 0.30 0.27 0.40 0.32 0.27 0.35 0.34 0.36 0.31 0.23 0.27 0.25 0.22 0.26 0.25 0.23 0.25 0.27 0.24 0.29 0.25 0.22 0.21 0.21 0.17 0.17 0.20 0.27 0.26 0.26 0.26 0.28 0.29 0.30
0.56 0.56 0.60 0.61 0.61 0.65 0.62 0.61 0.53 0.22 0.21 0.29 0.30 0.24 0.24 0.27 0.29 0.31 0.29 0.32 0.31 0.24 0.26 0.25 0.34 0.30 0.28 0.31 0.30 0.28 0.21 0.23 0.24 0.21 0.13 0.18 0.19 0.19 0.24 0.25 0.27 0.26 0.27 0.28 0.30
0.56 0.61 0.66 0.62 0.54 0.60 0.59 0.46 0.25 0.20 0.35 0.28 0.29 0.30 0.27 0.29 0.28 0.30 0.28 0.26 0.23 0.20 0.21 0.27 0.28 0.29 0.28 0.22 0.26 0.25 0.21 0.16 0.16 0.18 0.18 0.26 0.23 0.21 0.25 0.27 0.25 0.25 0.26 0.28 0.29
0.64 0.68 0.61 0.57 0.64 0.59 0.51 0.33 0.24 0.27 0.30 0.34 0.31 0.31 0.28 0.31 0.29 0.30 0.30 0.26 0.29 0.24 0.20 0.18 0.19 0.29 0.32 0.25 0.25 0.27 0.23 0.17 0.12 0.14 0.16 0.23 0.15 0.18 0.27 0.27 0.23 0.26 0.28 0.28 0.27
0.61 0.59 0.52 0.52 0.56 0.56 0.41 0.23 0.27 0.31 0.33 0.28 0.29 0.26 0.28 0.29 0.28 0.27 0.27 0.27 0.26 0.23 0.18 0.17 0.19 0.28 0.27 0.26 0.26 0.24 0.16 0.22 0.16 0.14 0.14 0.16 0.21 0.25 0.26 0.25 0.24 0.25 0.26 0.26 0.28
0.51 0.44 0.44 0.53 0.55 0.46 0.34 0.28 0.29 0.31 0.32 0.32 0.25 0.30 0.26 0.29 0.23 0.24 0.26 0.31 0.26 0.25 0.25 0.22 0.15 0.22 0.24 0.24 0.25 0.21 0.25 0.16 0.18 0.14 0.13 0.16 0.17 0.19 0.23 0.24 0.25 0.26 0.26 0.28 0.31
0.45 0.37 0.41 0.53 0.51 0.39 0.26 0.30 0.32 0.35 0.34 0.27 0.26 0.27 0.25 0.26 0.25 0.24 0.24 0.31 0.30 0.25 0.23 0.21 0.17 0.18 0.19 0.17 0.18 0.19 0.15 0.17 0.18 0.17 0.13 0.13 0.16 0.25 0.24 0.25 0.25 0.26 0.28 0.31 0.33
0.49 0.30 0.39 0.54 0.35 0.38 0.32 0.34 0.33 0.30 0.29 0.27 0.26 0.26 0.25 0.26 0.24 0.24 0.24 0.29 0.30 0.26 0.21 0.22 0.18 0.14 0.16 0.21 0.22 0.22 0.20 0.21 0.17 0.17 0.22 0.20 0.17 0.26 0.26 0.27 0.28 0.29 0.30 0.33 0.36
0.40 0.34 0.40 0.42 0.28 0.29 0.30 0.28 0.27 0.25 0.27 0.28 0.29 0.30 0.30 0.27 0.23 0.24 0.26 0.30 0.27 0.24 0.22 0.23 0.18 0.15 0.17 0.24 0.29 0.21 0.21 0.21 0.21 0.21 0.17 0.15 0.16 0.27 0.30 0.31 0.32 0.32 0.34 0.35 0.36
0.33 0.30 0.32 0.34 0.41 0.34 0.34 0.31 0.30 0.35 0.34 0.35 0.31 0.30 0.25 0.23 0.24 0.22 0.23 0.26 0.26 0.27 0.26 0.24 0.21 0.19 0.17 0.20 0.23 0.20 0.23 0.23 0.21 0.18 0.18 0.21 0.23 0.28 0.31 0.32 0.33 0.34 0.34 0.34 0.33
0.36 0.34 0.34 0.28 0.29 0.29 0.31 0.30 0.27 0.24 0.27 0.27 0.23 0.23 0.23 0.21 0.22 0.21 0.25 0.27 0.27 0.30 0.28 0.26 0.21 0.23 0.24 0.24 0.23 0.22 0.23 0.24 0.23 0.25 0.23 0.25 0.26 0.28 0.30 0.31 0.29 0.29 0.29 0.30 0.31
0.41 0.37 0.32 0.31 0.30 0.27 0.26 0.24 0.23 0.23 0.24 0.23 0.23 0.24 0.23 0.21 0.24 0.23 0.26 0.27 0.27 0.34 0.30 0.31 0.23 0.26 0.23 0.27 0.27 0.26 0.29 0.29 0.28 0.28 0.26 0.23 0.20 0.28 0.28 0.28 0.26 0.26 0.29 0.30 0.31
0.48 0.43 0.42 0.35 0.33 0.32 0.33 0.31 0.29 0.30 0.30 0.31 0.30 0.28 0.27 0.31 0.32 0.32 0.32 0.33 0.32 0.31 0.32 0.31 0.29 0.27 0.23 0.28 0.27 0.21 0.24 0.24 0.22 0.23 0.21 0.16 0.20 0.25 0.24 0.25 0.26 0.28 0.30 0.30 0.31

GFSSW_prec_pwat_051.txt.gz
Precipitable_Water
0.91 0.92 0.91 0.90 0.89 0.86 0.78 0.76 0.72 0.71 0.70 0.68 0.75 0.80 0.82 0.84 0.78 0.88 0.97 1.07 1.05 1.05 1.00 0.98 0.94 0.87 0.88 0.83 0.81 0.81 0.62 0.51 0.47 0.44 0.44 0.43 0.38 0.44 0.46 0.37 0.37 0.40 0.42 0.56 0.74
0.96 0.96 0.95 0.95 0.88 0.85 0.79 0.77 0.74 0.72 0.69 0.67 0.77 0.81 0.82 0.79 0.71 0.79 1.09 1.06 0.98 1.01 0.92 0.89 0.83 0.82 0.77 0.79 0.77 0.67 0.58 0.52 0.55 0.54 0.51 0.53 0.43 0.42 0.39 0.37 0.36 0.35 0.44 0.54 0.60
0.97 0.97 0.96 0.97 0.91 0.88 0.83 0.79 0.73 0.72 0.68 0.69 0.82 0.81 0.76 0.79 0.68 0.72 0.88 0.99 0.99 1.10 0.88 0.89 0.82 0.79 0.74 0.75 0.71 0.66 0.56 0.60 0.60 0.59 0.56 0.51 0.48 0.43 0.37 0.31 0.34 0.30 0.34 0.41 0.46
0.96 0.98 0.98 0.98 0.94 0.88 0.83 0.78 0.72 0.72 0.65 0.73 0.85 0.79 0.71 0.79 0.46 0.70 0.74 0.87 0.97 0.88 0.93 0.81 0.79 0.72 0.69 0.66 0.67 0.58 0.62 0.63 0.63 0.60 0.50 0.43 0.45 0.37 0.34 0.33 0.37 0.35 0.35 0.37 0.37
0.96 0.96 0.97 0.96 0.93 0.88 0.82 0.77 0.72 0.70 0.65 0.81 0.83 0.76 0.69 0.62 0.57 0.71 0.68 0.77 0.94 0.92 0.81 0.76 0.71 0.70 0.61 0.61 0.59 0.55 0.57 0.59 0.58 0.52 0.48 0.43 0.35 0.29 0.26 0.33 0.37 0.35 0.35 0.33 0.33
0.94 0.94 0.92 0.91 0.90 0.84 0.79 0.73 0.70 0.65 0.69 0.83 0.82 0.70 0.67 0.51 0.62 0.65 0.64 0.71 0.78 0.90 0.80 0.76 0.74 0.70 0.62 0.59 0.57 0.59 0.57 0.53 0.47 0.39 0.33 0.27 0.27 0.26 0.26 0.31 0.31 0.33 0.31 0.32 0.31
0.87 0.88 0.88 0.88 0.85 0.79 0.75 0.67 0.65 0.62 0.77 0.80 0.77 0.70 0.71 0.57 0.63 0.64 0.64 0.60 0.73 0.80 0.81 0.74 0.66 0.62 0.61 0.57 0.61 0.54 0.42 0.39 0.34 0.28 0.26 0.30 0.23 0.21 0.30 0.32 0.30 0.31 0.30 0.31 0.33
0.84 0.85 0.86 0.83 0.79 0.75 0.67 0.63 0.60 0.70 0.78 0.78 0.74 0.73 0.56 0.68 0.63 0.60 0.62 0.63 0.69 0.72 0.68 0.72 0.68 0.60 0.58 0.59 0.50 0.40 0.32 0.20 0.23 0.29 0.33 0.32 0.17 0.27 0.33 0.32 0.30 0.32 0.31 0.32 0.31
0.83 0.82 0.80 0.79 0.73 0.66 0.62 0.60 0.66 0.76 0.76 0.78 0.66 0.70 0.46 0.59 0.55 0.58 0.60 0.57 0.59 0.66 0.64 0.60 0.62 0.58 0.54 0.45 0.37 0.32 0.18 0.21 0.24 0.33 0.32 0.30 0.22 0.29 0.35 0.33 0.31 0.32 0.31 0.30 0.29
0.77 0.77 0.75 0.68 0.63 0.62 0.61 0.65 0.72 0.75 0.73 0.75 0.74 0.61 0.53 0.51 0.52 0.55 0.59 0.57 0.53 0.51 0.52 0.51 0.47 0.43 0.45 0.37 0.21 0.17 0.19 0.22 0.22 0.28 0.30 0.26 0.23 0.30 0.33 0.31 0.31 0.33 0.32 0.31 0.29
0.69 0.67 0.64 0.62 0.62 0.63 0.62 0.63 0.60 0.55 0.60 0.47 0.43 0.45 0.48 0.52 0.56 0.54 0.55 0.52 0.52 0.49 0.41 0.49 0.36 0.24 0.28 0.26 0.23 0.21 0.19 0.16 0.18 0.26 0.25 0.23 0.24 0.28 0.31 0.31 0.31 0.33 0.33 0.31 0.29
0.64 0.64 0.62 0.61 0.63 0.68 0.71 0.65 0.61 0.56 0.42 0.49 0.46 0.47 0.44 0.47 0.44 0.48 0.51 0.46 0.42 0.35 0.36 0.29 0.18 0.21 0.25 0.26 0.24 0.22 0.18 0.15 0.23 0.28 0.27 0.26 0.23 0.24 0.27 0.29 0.32 0.33 0.33 0.30 0.30
0.64 0.63 0.62 0.63 0.69 0.73 0.72 0.70 0.75 0.68 0.40 0.40 0.42 0.39 0.36 0.41 0.46 0.43 0.42 0.38 0.33 0.27 0.26 0.21 0.24 0.31 0.28 0.26 0.22 0.20 0.19 0.20 0.22 0.26 0.28 0.24 0.18 0.23 0.29 0.31 0.33 0.35 0.36 0.32 0.30
0.63 0.63 0.64 0.66 0.57 0.62 0.64 0.77 0.73 0.69 0.31 0.30 0.30 0.33 0.32 0.36 0.29 0.38 0.35 0.32 0.24 0.20 0.24 0.22 0.27 0.24 0.22 0.20 0.21 0.17 0.26 0.25 0.24 0.22 0.15 0.24 0.12 0.18 0.22 0.26 0.31 0.34 0.33 0.31 0.30
0.58 0.60 0.62 0.68 0.61 0.61 0.72 0.72 0.68 0.59 0.17 0.29 0.27 0.40 0.32 0.26 0.35 0.33 0.35 0.28 0.22 0.24 0.23 0.19 0.23 0.23 0.22 0.24 0.27 0.23 0.28 0.25 0.22 0.18 0.18 0.16 0.15 0.16 0.24 0.25 0.30 0.33 0.31 0.31 0.31
0.53 0.53 0.64 0.61 0.68 0.74 0.71 0.67 0.58 0.27 0.23 0.30 0.31 0.24 0.22 0.26 0.26 0.29 0.29 0.31 0.30 0.23 0.25 0.24 0.31 0.28 0.27 0.30 0.30 0.30 0.24 0.20 0.22 0.21 0.14 0.18 0.18 0.17 0.24 0.27 0.30 0.32 0.29 0.30 0.31
0.50 0.56 0.65 0.70 0.56 0.69 0.65 0.51 0.26 0.24 0.37 0.27 0.27 0.26 0.24 0.25 0.27 0.28 0.26 0.24 0.21 0.18 0.19 0.25 0.27 0.32 0.32 0.24 0.27 0.24 0.18 0.13 0.14 0.16 0.15 0.25 0.21 0.21 0.28 0.29 0.30 0.28 0.27 0.29 0.32
0.59 0.64 0.65 0.66 0.66 0.62 0.54 0.39 0.25 0.29 0.33 0.36 0.32 0.31 0.27 0.30 0.30 0.30 0.27 0.24 0.27 0.26 0.21 0.18 0.18 0.27 0.33 0.26 0.23 0.26 0.23 0.16 0.12 0.14 0.15 0.20 0.14 0.18 0.28 0.32 0.30 0.30 0.30 0.31 0.31
0.67 0.59 0.54 0.56 0.57 0.59 0.39 0.27 0.29 0.32 0.35 0.28 0.29 0.26 0.27 0.31 0.29 0.29 0.28 0.26 0.27 0.27 0.19 0.17 0.18 0.29 0.29 0.28 0.26 0.23 0.19 0.23 0.16 0.14 0.12 0.14 0.20 0.26 0.29 0.27 0.26 0.27 0.31 0.31 0.31
0.51 0.47 0.46 0.54 0.57 0.52 0.36 0.28 0.30 0.34 0.34 0.32 0.25 0.30 0.26 0.29 0.25 0.24 0.25 0.31 0.27 0.26 0.27 0.21 0.15 0.23 0.24 0.24 0.24 0.23 0.25 0.16 0.17 0.11 0.12 0.16 0.18 0.18 0.22 0.24 0.26 0.27 0.28 0.29 0.31
0.46 0.37 0.44 0.55 0.52 0.38 0.23 0.27 0.31 0.35 0.36 0.29 0.27 0.27 0.27 0.26 0.25 0.23 0.24 0.29 0.31 0.25 0.23 0.22 0.18 0.17 0.20 0.17 0.17 0.19 0.17 0.17 0.17 0.17 0.13 0.12 0.15 0.25 0.25 0.25 0.26 0.28 0.29 0.32 0.34
0.44 0.28 0.40 0.52 0.30 0.32 0.28 0.32 0.35 0.34 0.36 0.29 0.29 0.28 0.25 0.25 0.22 0.23 0.24 0.28 0.31 0.27 0.21 0.22 0.18 0.15 0.16 0.21 0.23 0.24 0.20 0.21 0.17 0.16 0.20 0.20 0.18 0.26 0.26 0.27 0.29 0.30 0.32 0.35 0.38
0.44 0.35 0.41 0.49 0.28 0.30 0.32 0.31 0.32 0.27 0.25 0.24 0.24 0.26 0.27 0.25 0.22 0.25 0.28 0.31 0.27 0.24 0.22 0.23 0.16 0.14 0.17 0.22 0.27 0.22 0.21 0.21 0.20 0.21 0.17 0.15 0.17 0.26 0.30 0.31 0.33 0.34 0.35 0.35 0.34
0.36 0.29 0.33 0.37 0.41 0.34 0.34 0.32 0.28 0.33 0.32 0.31 0.29 0.31 0.27 0.26 0.27 0.24 0.24 0.26 0.26 0.27 0.26 0.24 0.20 0.18 0.16 0.19 0.22 0.20 0.22 0.24 0.22 0.19 0.19 0.21 0.23 0.29 0.31 0.31 0.31 0.29 0.28 0.27 0.28
0.38 0.34 0.34 0.25 0.28 0.34 0.33 0.31 0.28 0.25 0.29 0.30 0.25 0.24 0.22 0.21 0.22 0.21 0.27 0.27 0.27 0.29 0.26 0.25 0.20 0.23 0.23 0.24 0.25 0.24 0.24 0.26 0.25 0.25 0.22 0.24 0.24 0.25 0.24 0.24 0.25 0.26 0.28 0.28 0.29
0.40 0.36 0.33 0.32 0.30 0.27 0.26 0.26 0.26 0.25 0.25 0.24 0.24 0.25 0.23 0.22 0.23 0.23 0.26 0.28 0.28 0.33 0.30 0.30 0.23 0.26 0.24 0.28 0.27 0.25 0.27 0.26 0.25 0.25 0.24 0.21 0.18 0.24 0.26 0.26 0.26 0.27 0.28 0.28 0.30
0.50 0.45 0.41 0.35 0.32 0.31 0.31 0.30 0.29 0.29 0.30 0.30 0.29 0.27 0.25 0.27 0.31 0.32 0.33 0.33 0.34 0.33 0.32 0.32 0.30 0.28 0.24 0.29 0.27 0.19 0.22 0.22 0.23 0.23 0.22 0.17 0.20 0.23 0.22 0.24 0.25 0.27 0.27 0.28 0.30

GFSSW_prec_pwat_057.txt.gz
Precipitable_Water
0.76 0.76 0.79 0.80 0.81 0.83 0.84 0.84 0.74 0.68 0.67 0.66 0.70 0.68 0.73 0.74 0.79 0.68 0.61 0.99 1.20 1.10 1.04 0.97 0.94 0.89 0.92 0.85 0.85 0.87 0.58 0.45 0.48 0.44 0.45 0.50 0.48 0.53 0.57 0.47 0.47 0.52 0.52 0.75 0.90
0.81 0.76 0.82 0.85 0.89 0.89 0.87 0.83 0.75 0.70 0.68 0.66 0.71 0.68 0.72 0.75 0.68 0.57 0.70 1.05 1.12 1.16 0.89 0.85 0.81 0.82 0.78 0.79 0.79 0.72 0.54 0.51 0.56 0.53 0.47 0.50 0.49 0.52 0.52 0.50 0.49 0.49 0.56 0.73 0.82
0.85 0.86 0.85 0.89 0.89 0.89 0.86 0.81 0.78 0.73 0.70 0.69 0.70 0.68 0.74 0.74 0.56 0.56 0.78 1.02 1.15 1.08 0.97 0.95 0.84 0.79 0.73 0.76 0.73 0.71 0.59 0.59 0.57 0.57 0.57 0.52 0.51 0.55 0.49 0.44 0.44 0.40 0.47 0.57 0.68
0.86 0.91 0.92 0.92 0.93 0.93 0.90 0.84 0.81 0.76 0.72 0.70 0.68 0.69 0.75 0.66 0.36 0.62 0.77 0.86 1.12 1.07 0.89 0.90 0.82 0.76 0.70 0.66 0.71 0.62 0.65 0.63 0.61 0.61 0.55 0.51 0.52 0.49 0.48 0.43 0.42 0.44 0.44 0.46 0.52
0.91 0.93 1.00 1.01 0.99 0.96 0.92 0.86 0.81 0.77 0.73 0.69 0.65 0.76 0.65 0.49 0.52 0.65 0.68 0.82 0.97 1.02 1.11 0.87 0.85 0.79 0.71 0.69 0.67 0.64 0.65 0.66 0.64 0.59 0.56 0.53 0.45 0.41 0.39 0.40 0.39 0.39 0.40 0.40 0.43
0.91 0.95 0.97 0.98 0.98 0.96 0.92 0.86 0.79 0.75 0.72 0.66 0.69 0.78 0.60 0.42 0.63 0.61 0.62 0.73 0.87 0.90 1.04 0.98 0.73 0.75 0.69 0.67 0.66 0.68 0.64 0.60 0.59 0.56 0.53 0.44 0.39 0.34 0.30 0.34 0.32 0.35 0.35 0.37 0.37
0.85 0.94 0.94 0.94 0.96 0.94 0.91 0.83 0.76 0.73 0.69 0.63 0.76 0.72 0.61 0.51 0.59 0.57 0.58 0.63 0.85 0.90 0.82 0.98 0.97 0.90 0.80 0.73 0.68 0.65 0.54 0.54 0.52 0.52 0.41 0.35 0.24 0.21 0.30 0.34 0.33 0.33 0.35 0.35 0.35
0.81 0.90 0.92 0.92 0.92 0.90 0.87 0.79 0.74 0.69 0.64 0.70 0.79 0.72 0.50 0.74 0.59 0.54 0.56 0.59 0.76 0.95 0.97 0.90 0.89 0.79 0.71 0.65 0.59 0.53 0.49 0.40 0.45 0.44 0.33 0.30 0.19 0.26 0.35 0.34 0.31 0.33 0.34 0.34 0.35
0.80 0.84 0.88 0.88 0.88 0.88 0.81 0.74 0.69 0.65 0.70 0.78 0.66 0.68 0.48 0.63 0.51 0.54 0.56 0.53 0.62 0.69 0.89 0.97 0.85 0.70 0.67 0.59 0.47 0.45 0.37 0.38 0.39 0.40 0.32 0.29 0.21 0.28 0.34 0.33 0.31 0.35 0.35 0.34 0.34
0.81 0.83 0.85 0.86 0.85 0.81 0.73 0.66 0.64 0.68 0.72 0.75 0.78 0.56 0.58 0.51 0.52 0.52 0.55 0.55 0.53 0.54 0.55 0.61 0.66 0.64 0.60 0.54 0.41 0.39 0.39 0.42 0.32 0.28 0.28 0.25 0.20 0.25 0.31 0.31 0.33 0.35 0.36 0.35 0.34
0.77 0.79 0.80 0.80 0.78 0.71 0.63 0.54 0.49 0.55 0.60 0.49 0.52 0.46 0.53 0.59 0.56 0.52 0.56 0.51 0.51 0.49 0.44 0.52 0.44 0.42 0.48 0.48 0.43 0.40 0.39 0.32 0.26 0.26 0.25 0.22 0.20 0.22 0.29 0.31 0.32 0.34 0.36 0.37 0.37
0.74 0.75 0.74 0.71 0.69 0.69 0.68 0.57 0.64 0.67 0.44 0.56 0.56 0.53 0.55 0.55 0.54 0.49 0.53 0.44 0.42 0.38 0.44 0.40 0.36 0.38 0.40 0.43 0.40 0.38 0.32 0.25 0.24 0.27 0.25 0.22 0.20 0.24 0.27 0.28 0.31 0.33 0.36 0.37 0.36
0.65 0.65 0.68 0.70 0.73 0.72 0.67 0.72 0.84 0.75 0.42 0.46 0.51 0.51 0.53 0.59 0.50 0.50 0.50 0.46 0.37 0.36 0.38 0.36 0.41 0.44 0.40 0.35 0.28 0.26 0.22 0.21 0.20 0.24 0.25 0.23 0.18 0.19 0.23 0.27 0.31 0.34 0.35 0.37 0.35
0.64 0.67 0.71 0.79 0.72 0.74 0.70 0.78 0.84 0.79 0.34 0.40 0.46 0.52 0.58 0.53 0.49 0.56 0.53 0.47 0.43 0.37 0.40 0.36 0.40 0.34 0.29 0.24 0.25 0.19 0.25 0.23 0.22 0.21 0.15 0.25 0.12 0.14 0.19 0.22 0.26 0.31 0.33 0.36 0.37
0.66 0.70 0.77 0.82 0.76 0.76 0.77 0.82 0.82 0.71 0.25 0.40 0.51 0.59 0.47 0.43 0.46 0.48 0.52 0.44 0.35 0.36 0.37 0.28 0.30 0.26 0.22 0.23 0.26 0.21 0.29 0.26 0.25 0.22 0.20 0.17 0.14 0.13 0.21 0.21 0.27 0.32 0.34 0.37 0.37
0.66 0.72 0.75 0.78 0.88 0.84 0.80 0.79 0.68 0.33 0.26 0.36 0.43 0.40 0.37 0.42 0.43 0.42 0.37 0.40 0.38 0.32 0.30 0.26 0.32 0.27 0.25 0.28 0.28 0.30 0.26 0.26 0.25 0.21 0.12 0.15 0.15 0.16 0.22 0.27 0.28 0.33 0.35 0.36 0.35
0.65 0.70 0.74 0.87 0.72 0.80 0.76 0.61 0.31 0.28 0.39 0.34 0.34 0.35 0.33 0.30 0.29 0.29 0.26 0.22 0.19 0.15 0.14 0.19 0.22 0.26 0.28 0.23 0.29 0.28 0.22 0.14 0.12 0.13 0.11 0.22 0.19 0.20 0.26 0.29 0.28 0.29 0.33 0.34 0.36
0.60 0.74 0.77 0.75 0.78 0.72 0.65 0.42 0.25 0.33 0.32 0.36 0.30 0.25 0.21 0.26 0.27 0.27 0.24 0.19 0.22 0.21 0.17 0.15 0.14 0.25 0.30 0.27 0.24 0.23 0.21 0.14 0.10 0.11 0.15 0.21 0.15 0.18 0.25 0.27 0.29 0.31 0.33 0.35 0.35
0.60 0.64 0.71 0.71 0.70 0.66 0.51 0.31 0.33 0.34 0.37 0.31 0.30 0.21 0.23 0.28 0.29 0.28 0.26 0.24 0.25 0.26 0.20 0.18 0.18 0.28 0.30 0.30 0.27 0.23 0.20 0.26 0.18 0.18 0.14 0.14 0.16 0.22 0.25 0.24 0.27 0.30 0.31 0.33 0.35
0.51 0.52 0.57 0.67 0.67 0.57 0.40 0.35 0.36 0.39 0.37 0.35 0.28 0.31 0.26 0.29 0.28 0.28 0.25 0.30 0.27 0.29 0.29 0.22 0.16 0.24 0.27 0.30 0.29 0.25 0.26 0.18 0.18 0.10 0.10 0.13 0.15 0.17 0.22 0.23 0.26 0.27 0.29 0.32 0.34
0.49 0.38 0.52 0.63 0.60 0.44 0.26 0.35 0.36 0.41 0.41 0.34 0.31 0.29 0.29 0.28 0.28 0.25 0.24 0.28 0.30 0.25 0.25 0.23 0.20 0.18 0.22 0.19 0.18 0.20 0.19 0.20 0.19 0.18 0.13 0.11 0.13 0.22 0.23 0.26 0.26 0.27 0.29 0.30 0.33
0.45 0.31 0.48 0.58 0.35 0.37 0.28 0.32 0.37 0.35 0.37 0.33 0.34 0.32 0.29 0.28 0.25 0.24 0.23 0.26 0.31 0.25 0.18 0.21 0.18 0.15 0.16 0.21 0.23 0.23 0.20 0.20 0.16 0.14 0.17 0.17 0.17 0.27 0.26 0.27 0.28 0.29 0.32 0.35 0.37
0.38 0.34 0.45 0.51 0.26 0.29 0.33 0.32 0.33 0.30 0.30 0.30 0.28 0.29 0.30 0.26 0.22 0.25 0.26 0.31 0.32 0.28 0.23 0.22 0.16 0.13 0.15 0.20 0.23 0.20 0.22 0.24 0.24 0.23 0.18 0.16 0.17 0.27 0.29 0.30 0.31 0.32 0.34 0.36 0.34
0.39 0.28 0.35 0.43 0.40 0.31 0.28 0.27 0.26 0.31 0.29 0.26 0.24 0.25 0.23 0.23 0.27 0.24 0.26 0.29 0.28 0.26 0.27 0.24 0.19 0.17 0.15 0.18 0.22 0.20 0.22 0.23 0.22 0.19 0.19 0.20 0.21 0.26 0.28 0.30 0.32 0.34 0.32 0.30 0.31
0.39 0.33 0.33 0.27 0.33 0.33 0.34 0.32 0.29 0.28 0.31 0.32 0.28 0.28 0.27 0.25 0.26 0.25 0.27 0.24 0.26 0.30 0.26 0.23 0.17 0.21 0.22 0.24 0.24 0.24 0.24 0.25 0.24 0.25 0.22 0.25 0.25 0.27 0.30 0.30 0.29 0.29 0.29 0.29 0.30
0.37 0.34 0.34 0.29 0.33 0.33 0.32 0.33 0.30 0.27 0.26 0.26 0.25 0.26 0.24 0.22 0.23 0.23 0.25 0.26 0.25 0.31 0.27 0.29 0.23 0.26 0.24 0.29 0.30 0.28 0.31 0.31 0.30 0.28 0.24 0.22 0.22 0.29 0.29 0.30 0.27 0.27 0.29 0.30 0.30
0.46 0.48 0.36 0.32 0.29 0.30 0.30 0.30 0.29 0.28 0.28 0.28 0.26 0.25 0.24 0.26 0.30 0.32 0.34 0.35 0.34 0.31 0.30 0.31 0.30 0.29 0.25 0.30 0.28 0.21 0.21 0.21 0.21 0.21 0.19 0.15 0.20 0.26 0.25 0.26 0.27 0.29 0.30 0.29 0.28